QPF
0.00 0.00 0.00 0.00 0.00 0.00 0.00 0.00 0.00 0.00 0.00 0.00 0.00 0.00 0.00 0.00 0.00 0.00 0.00 0.00 0.00 0.00 0.00 0.00 0.00 0.00 0.00 0.00 0.00 0.00 0.00 0.00 0.00 0.00 0.00 0.00 0.00 0.00 0.01 0.00 0.00 0.00 0.00
0.08 0.05 0.01 0.00 0.00 0.00 0.00 0.00 0.00 0.01 0.00 0.00 0.00 0.00 0.00 0.00 0.00 0.00 0.00 0.00 0.00 0.00 0.00 0.00 0.00 0.00 0.00 0.00 0.00 0.00 0.00 0.00 0.00 0.00 0.00 0.00 0.00 0.00 0.02 0.00 0.00 0.00 0.00
0.07 0.06 0.04 0.01 0.00 0.00 0.00 0.00 0.00 0.00 0.00 0.00 0.00 0.00 0.00 0.00 0.00 0.00 0.00 0.00 0.00 0.00 0.00 0.00 0.00 0.00 0.00 0.00 0.00 0.00 0.00 0.00 0.00 0.00 0.00 0.00 0.00 0.00 0.00 0.00 0.00 0.00 0.00
0.07 0.02 0.02 0.00 0.00 0.00 0.00 0.00 0.00 0.00 0.00 0.00 0.00 0.00 0.00 0.00 0.00 0.00 0.00 0.00 0.00 0.00 0.00 0.00 0.00 0.00 0.00 0.00 0.00 0.00 0.00 0.00 0.00 0.00 0.00 0.01 0.00 0.00 0.00 0.00 0.00 0.00 0.00
0.06 0.11 0.03 0.00 0.00 0.00 0.00 0.00 0.00 0.00 0.00 0.00 0.00 0.00 0.00 0.00 0.00 0.00 0.00 0.00 0.00 0.00 0.00 0.00 0.00 0.00 0.00 0.00 0.00 0.00 0.00 0.00 0.00 0.00 0.00 0.00 0.00 0.00 0.00 0.00 0.00 0.00 0.00
0.08 0.09 0.01 0.00 0.00 0.00 0.00 0.00 0.00 0.00 0.00 0.00 0.00 0.00 0.00 0.00 0.00 0.00 0.00 0.00 0.00 0.00 0.00 0.00 0.00 0.00 0.00 0.00 0.00 0.00 0.00 0.00 0.00 0.00 0.00 0.00 0.00 0.00 0.00 0.00 0.00 0.00 0.00
0.03 0.02 0.02 0.00 0.01 0.00 0.00 0.00 0.00 0.00 0.00 0.00 0.00 0.00 0.00 0.00 0.00 0.00 0.00 0.00 0.00 0.00 0.00 0.00 0.00 0.00 0.00 0.00 0.00 0.00 0.00 0.00 0.00 0.00 0.00 0.00 0.00 0.00 0.00 0.00 0.00 0.00 0.00
0.07 0.00 0.00 0.00 0.00 0.00 0.00 0.00 0.00 0.00 0.00 0.00 0.00 0.00 0.00 0.00 0.00 0.00 0.00 0.00 0.00 0.00 0.00 0.00 0.00 0.00 0.00 0.00 0.00 0.00 0.00 0.00 0.00 0.00 0.00 0.00 0.00 0.00 0.00 0.00 0.00 0.00 0.00
0.04 0.02 0.00 0.00 0.00 0.00 0.00 0.00 0.00 0.00 0.00 0.00 0.00 0.00 0.00 0.00 0.00 0.00 0.00 0.00 0.00 0.00 0.00 0.00 0.00 0.00 0.00 0.00 0.00 0.00 0.00 0.00 0.00 0.00 0.00 0.00 0.00 0.00 0.00 0.00 0.00 0.00 0.00
0.02 0.01 0.00 0.00 0.00 0.00 0.00 0.00 0.00 0.00 0.00 0.00 0.00 0.00 0.00 0.00 0.00 0.00 0.00 0.00 0.00 0.00 0.00 0.00 0.00 0.00 0.00 0.00 0.00 0.00 0.00 0.00 0.00 0.00 0.00 0.00 0.00 0.00 0.00 0.00 0.00 0.00 0.00
0.00 0.03 0.01 0.05 0.01 0.00 0.00 0.00 0.00 0.00 0.00 0.00 0.00 0.00 0.00 0.00 0.00 0.00 0.00 0.00 0.00 0.00 0.00 0.00 0.00 0.00 0.00 0.00 0.00 0.00 0.00 0.00 0.00 0.00 0.00 0.00 0.00 0.00 0.01 0.00 0.00 0.00 0.00
0.01 0.01 0.00 0.07 0.05 0.00 0.00 0.00 0.00 0.00 0.00 0.00 0.00 0.00 0.00 0.00 0.00 0.00 0.00 0.00 0.00 0.00 0.00 0.00 0.00 0.00 0.00 0.00 0.00 0.00 0.00 0.00 0.00 0.01 0.01 0.03 0.01 0.01 0.01 0.01 0.01 0.00 0.00
0.00 0.00 0.00 0.03 0.03 0.00 0.01 0.01 0.00 0.00 0.00 0.00 0.00 0.00 0.00 0.00 0.00 0.00 0.00 0.00 0.00 0.00 0.00 0.00 0.00 0.00 0.00 0.00 0.00 0.00 0.00 0.00 0.00 0.00 0.00 0.01 0.01 0.01 0.01 0.01 0.01 0.01 0.00
0.00 0.01 0.03 0.02 0.03 0.00 0.00 0.01 0.00 0.01 0.01 0.00 0.00 0.00 0.00 0.00 0.00 0.00 0.00 0.00 0.00 0.00 0.00 0.00 0.00 0.00 0.00 0.00 0.00 0.00 0.00 0.00 0.00 0.00 0.00 0.00 0.00 0.00 0.00 0.00 0.00 0.00 0.00
0.00 0.01 0.03 0.03 0.02 0.01 0.01 0.01 0.01 0.01 0.03 0.00 0.00 0.00 0.00 0.00 0.00 0.00 0.00 0.00 0.00 0.00 0.00 0.00 0.00 0.00 0.00 0.00 0.00 0.00 0.00 0.00 0.00 0.00 0.00 0.00 0.00 0.00 0.00 0.00 0.00 0.00 0.00
0.00 0.00 0.00 0.01 0.04 0.03 0.02 0.00 0.01 0.00 0.00 0.00 0.00 0.00 0.00 0.00 0.00 0.00 0.00 0.00 0.00 0.00 0.00 0.00 0.00 0.00 0.00 0.00 0.00 0.00 0.00 0.00 0.00 0.00 0.00 0.00 0.00 0.00 0.00 0.00 0.00 0.00 0.00
0.00 0.00 0.00 0.01 0.01 0.03 0.02 0.00 0.00 0.00 0.00 0.00 0.00 0.00 0.00 0.00 0.00 0.00 0.00 0.00 0.00 0.00 0.00 0.00 0.00 0.00 0.00 0.00 0.00 0.00 0.00 0.00 0.00 0.00 0.00 0.00 0.00 0.00 0.00 0.00 0.00 0.00 0.00
0.00 0.00 0.00 0.00 0.00 0.00 0.02 0.00 0.01 0.00 0.00 0.00 0.00 0.00 0.00 0.00 0.00 0.00 0.00 0.00 0.00 0.00 0.00 0.00 0.00 0.00 0.00 0.00 0.00 0.00 0.00 0.00 0.00 0.00 0.00 0.00 0.00 0.00 0.00 0.00 0.00 0.00 0.00
0.00 0.00 0.00 0.00 0.00 0.00 0.00 0.00 0.00 0.00 0.00 0.00 0.00 0.00 0.00 0.00 0.00 0.00 0.00 0.00 0.00 0.00 0.00 0.00 0.00 0.00 0.00 0.00 0.00 0.00 0.00 0.00 0.00 0.00 0.00 0.00 0.00 0.00 0.00 0.00 0.00 0.00 0.00
0.00 0.00 0.00 0.00 0.00 0.00 0.00 0.00 0.00 0.00 0.00 0.00 0.00 0.00 0.00 0.00 0.00 0.00 0.00 0.00 0.00 0.00 0.00 0.00 0.00 0.00 0.00 0.00 0.00 0.00 0.00 0.00 0.00 0.00 0.00 0.00 0.00 0.00 0.00 0.00 0.00 0.00 0.00
0.00 0.00 0.00 0.00 0.00 0.00 0.00 0.00 0.00 0.00 0.00 0.00 0.00 0.00 0.00 0.00 0.00 0.00 0.00 0.00 0.00 0.00 0.00 0.00 0.00 0.00 0.00 0.00 0.00 0.00 0.00 0.00 0.00 0.00 0.00 0.00 0.00 0.00 0.00 0.00 0.00 0.00 0.00
0.00 0.00 0.00 0.00 0.00 0.00 0.00 0.00 0.00 0.00 0.00 0.00 0.00 0.00 0.00 0.00 0.00 0.00 0.00 0.00 0.00 0.00 0.00 0.00 0.00 0.00 0.00 0.00 0.00 0.00 0.00 0.00 0.00 0.00 0.00 0.00 0.00 0.00 0.00 0.00 0.00 0.00 0.00
0.00 0.00 0.00 0.00 0.00 0.00 0.00 0.00 0.00 0.00 0.00 0.00 0.00 0.00 0.00 0.00 0.00 0.00 0.00 0.00 0.00 0.00 0.00 0.00 0.00 0.00 0.00 0.00 0.00 0.00 0.00 0.00 0.00 0.00 0.00 0.00 0.00 0.00 0.00 0.00 0.00 0.00 0.00
0.00 0.00 0.00 0.00 0.00 0.00 0.00 0.00 0.00 0.00 0.00 0.00 0.00 0.00 0.00 0.00 0.00 0.00 0.00 0.00 0.00 0.00 0.00 0.00 0.00 0.00 0.00 0.00 0.00 0.00 0.00 0.00 0.00 0.00 0.01 0.01 0.00 0.01 0.00 0.00 0.00 0.00 0.00
0.00 0.00 0.00 0.00 0.00 0.00 0.00 0.00 0.00 0.00 0.00 0.00 0.00 0.00 0.00 0.00 0.00 0.00 0.00 0.00 0.00 0.00 0.00 0.00 0.00 0.00 0.00 0.00 0.00 0.00 0.00 0.00 0.00 0.00 0.00 0.00 0.01 0.02 0.00 0.00 0.00 0.00 0.00
0.00 0.00 0.00 0.00 0.00 0.00 0.00 0.00 0.00 0.00 0.00 0.00 0.00 0.00 0.00 0.00 0.00 0.00 0.00 0.00 0.00 0.00 0.00 0.00 0.00 0.00 0.00 0.00 0.00 0.00 0.00 0.00 0.00 0.01 0.00 0.01 0.02 0.04 0.00 0.00 0.00 0.00 0.00
MSLP
1021.15 1021.34 1021.69 1021.89 1022.02 1022.17 1022.09 1022.17 1022.40 1022.40 1022.33 1022.27 1022.41 1022.62 1022.83 1022.95 1023.01 1023.01 1023.00 1022.93 1023.01 1023.08 1023.20 1023.32 1023.34 1023.32 1023.35 1023.41 1023.44 1023.47 1023.50 1023.45 1023.39 1023.36 1023.33 1023.27 1023.15 1022.99 1022.82 1022.67 1022.55 1022.33 1022.16
1021.31 1021.55 1021.58 1021.90 1022.15 1022.23 1022.37 1022.30 1022.47 1022.65 1022.57 1022.45 1022.56 1022.84 1023.01 1023.11 1023.14 1023.15 1023.16 1023.17 1023.20 1023.33 1023.34 1023.41 1023.37 1023.37 1023.40 1023.46 1023.54 1023.57 1023.51 1023.47 1023.45 1023.38 1023.30 1023.24 1023.11 1022.91 1022.75 1022.63 1022.55 1022.39 1022.21
1021.72 1021.68 1021.59 1021.85 1022.14 1022.26 1022.30 1022.42 1022.47 1022.57 1022.55 1022.52 1022.75 1022.98 1023.09 1023.23 1023.21 1023.28 1023.27 1023.31 1023.36 1023.34 1023.39 1023.41 1023.45 1023.45 1023.47 1023.46 1023.53 1023.59 1023.57 1023.53 1023.47 1023.35 1023.25 1023.12 1022.97 1022.83 1022.65 1022.50 1022.45 1022.40 1022.28
1021.49 1021.51 1021.77 1021.77 1021.92 1022.21 1022.35 1022.45 1022.53 1022.66 1022.96 1023.01 1023.10 1023.26 1023.24 1023.31 1023.35 1023.27 1023.31 1023.38 1023.47 1023.45 1023.43 1023.35 1023.42 1023.49 1023.51 1023.51 1023.49 1023.47 1023.44 1023.41 1023.32 1023.19 1023.02 1022.87 1022.83 1022.73 1022.57 1022.45 1022.38 1022.37 1022.32
1021.43 1021.54 1021.73 1021.74 1021.92 1022.13 1022.23 1022.44 1022.69 1022.86 1023.21 1023.36 1023.34 1023.33 1023.21 1023.34 1023.31 1023.20 1023.28 1023.31 1023.45 1023.47 1023.49 1023.43 1023.47 1023.46 1023.41 1023.35 1023.29 1023.27 1023.25 1023.17 1023.09 1022.98 1022.87 1022.82 1022.77 1022.66 1022.52 1022.38 1022.32 1022.27 1022.21
1021.50 1021.61 1021.71 1021.79 1022.03 1022.24 1022.50 1022.59 1022.75 1023.03 1023.23 1023.44 1023.45 1023.41 1023.36 1023.29 1023.30 1023.30 1023.23 1023.18 1023.32 1023.39 1023.39 1023.41 1023.42 1023.40 1023.38 1023.27 1023.17 1023.06 1023.03 1022.96 1022.86 1022.80 1022.75 1022.69 1022.63 1022.57 1022.46 1022.36 1022.31 1022.22 1022.14
1021.38 1021.47 1021.76 1021.97 1022.15 1022.47 1022.64 1022.70 1022.91 1023.18 1023.38 1023.47 1023.61 1023.73 1023.56 1023.40 1023.29 1023.15 1023.15 1023.14 1023.15 1023.20 1023.23 1023.24 1023.29 1023.24 1023.12 1023.06 1022.95 1022.88 1022.79 1022.70 1022.68 1022.57 1022.51 1022.56 1022.53 1022.43 1022.34 1022.28 1022.22 1022.15 1022.05
1021.30 1021.59 1021.90 1022.21 1022.30 1022.57 1022.75 1022.90 1023.05 1023.28 1023.46 1023.62 1023.91 1024.24 1024.18 1023.57 1023.14 1023.01 1022.99 1022.93 1022.89 1023.01 1022.94 1022.95 1023.01 1023.04 1023.01 1022.92 1022.76 1022.70 1022.61 1022.61 1022.51 1022.45 1022.34 1022.27 1022.27 1022.27 1022.22 1022.15 1022.06 1021.99 1021.91
1021.14 1021.54 1021.91 1022.13 1022.39 1022.58 1022.75 1022.87 1022.93 1023.07 1023.49 1023.89 1023.92 1024.19 1024.45 1024.30 1023.87 1023.11 1022.92 1022.89 1022.84 1022.86 1022.77 1022.77 1022.74 1022.73 1022.69 1022.66 1022.59 1022.45 1022.40 1022.40 1022.31 1022.19 1022.11 1022.07 1022.07 1022.01 1021.98 1021.91 1021.86 1021.75 1021.63
1021.02 1021.24 1021.64 1021.88 1022.12 1022.33 1022.55 1022.63 1022.74 1023.10 1023.34 1023.75 1024.02 1024.03 1024.13 1024.34 1024.15 1023.76 1023.12 1022.91 1022.83 1022.73 1022.54 1022.45 1022.34 1022.27 1022.35 1022.36 1022.28 1022.24 1022.21 1022.19 1022.13 1021.97 1021.76 1021.70 1021.57 1021.51 1021.46 1021.39 1021.37 1021.36 1021.27
1020.91 1021.19 1021.51 1021.79 1022.01 1022.15 1022.37 1022.53 1022.73 1023.03 1023.22 1023.62 1023.81 1023.89 1024.10 1024.12 1024.09 1024.09 1023.78 1023.28 1022.79 1022.54 1022.33 1022.23 1022.11 1022.04 1022.05 1022.03 1021.93 1021.86 1021.85 1021.71 1021.65 1021.35 1021.34 1021.14 1021.11 1020.98 1020.81 1020.72 1020.63 1020.72 1020.71
1020.82 1021.00 1021.20 1021.63 1022.07 1022.07 1022.13 1022.36 1022.57 1022.91 1023.11 1023.36 1023.61 1023.79 1023.95 1023.93 1023.95 1024.03 1024.01 1023.85 1023.66 1022.74 1022.28 1021.96 1021.89 1021.80 1021.77 1021.66 1021.53 1021.41 1021.33 1021.16 1021.09 1020.87 1020.78 1020.69 1020.51 1020.32 1020.19 1019.99 1019.83 1019.83 1019.81
1020.72 1020.88 1021.00 1021.43 1021.79 1021.92 1022.05 1022.21 1022.49 1022.86 1023.07 1023.25 1023.46 1023.67 1023.81 1023.77 1023.83 1023.86 1023.96 1023.97 1023.88 1023.17 1022.58 1022.01 1021.70 1021.62 1021.48 1021.41 1021.29 1021.33 1021.15 1021.00 1020.70 1020.40 1020.16 1020.08 1019.95 1019.82 1019.59 1019.35 1019.17 1019.11 1019.04
1020.05 1020.21 1020.71 1021.01 1021.38 1021.67 1021.98 1022.31 1022.46 1022.73 1022.80 1023.15 1023.36 1023.49 1023.63 1023.67 1023.67 1023.75 1023.75 1023.93 1023.87 1023.63 1023.17 1022.50 1021.82 1021.65 1021.53 1021.39 1021.20 1021.06 1020.82 1020.61 1020.36 1020.21 1019.85 1019.43 1019.35 1019.27 1019.10 1018.91 1018.71 1018.61 1018.50
1019.54 1019.94 1020.46 1020.77 1021.07 1021.45 1021.79 1022.18 1022.48 1022.69 1022.85 1022.98 1023.21 1023.39 1023.46 1023.54 1023.59 1023.66 1023.65 1023.68 1023.83 1023.86 1023.46 1022.72 1022.30 1021.68 1021.47 1021.25 1021.12 1020.89 1020.64 1020.36 1020.21 1019.87 1019.52 1019.33 1019.08 1018.82 1018.60 1018.41 1018.16 1018.09 1018.14
1019.21 1019.59 1020.05 1020.41 1020.73 1021.10 1021.45 1021.83 1022.22 1022.36 1022.74 1022.95 1023.13 1023.31 1023.37 1023.37 1023.47 1023.60 1023.65 1023.66 1023.74 1023.81 1023.61 1023.09 1022.59 1022.21 1021.69 1021.33 1021.03 1020.83 1020.53 1020.33 1019.99 1019.73 1019.47 1019.05 1018.67 1018.39 1018.27 1018.07 1017.96 1017.95 1017.91
1019.06 1019.38 1019.80 1020.18 1020.43 1020.76 1021.00 1021.43 1021.78 1022.12 1022.47 1022.82 1023.01 1023.09 1023.12 1023.20 1023.29 1023.45 1023.57 1023.63 1023.59 1023.63 1023.60 1023.08 1022.91 1022.25 1021.87 1021.45 1020.91 1020.71 1020.47 1020.17 1019.83 1019.48 1019.21 1018.89 1018.53 1018.40 1018.16 1018.00 1017.71 1017.72 1017.68
1018.46 1018.87 1019.35 1019.79 1020.07 1020.37 1020.72 1021.15 1021.46 1021.71 1022.16 1022.47 1022.67 1022.91 1022.86 1022.89 1022.94 1023.09 1023.30 1023.37 1023.36 1023.34 1023.38 1023.12 1022.77 1022.29 1021.93 1021.34 1021.13 1020.83 1020.41 1019.94 1019.74 1019.19 1019.00 1018.73 1018.33 1018.27 1018.04 1017.91 1017.82 1017.78 1017.77
1018.00 1018.30 1018.81 1019.23 1019.58 1019.87 1020.27 1020.62 1020.96 1021.21 1021.52 1021.85 1022.11 1022.37 1022.37 1022.52 1022.58 1022.69 1022.87 1022.97 1023.00 1022.98 1023.05 1023.00 1022.64 1022.37 1021.93 1021.50 1021.17 1020.77 1020.35 1019.76 1019.52 1019.08 1018.69 1018.33 1018.11 1018.16 1018.01 1017.93 1017.95 1017.97 1017.95
1017.47 1017.71 1018.09 1018.46 1018.89 1019.28 1019.61 1020.00 1020.42 1020.76 1020.97 1021.15 1021.40 1021.63 1021.77 1021.94 1022.02 1022.12 1022.34 1022.46 1022.55 1022.61 1022.64 1022.62 1022.42 1022.18 1021.92 1021.42 1021.38 1021.03 1020.33 1019.98 1019.52 1018.76 1018.34 1018.23 1018.15 1018.22 1018.34 1018.35 1018.35 1018.27 1018.36
1016.81 1016.95 1017.34 1017.79 1018.17 1018.63 1019.02 1019.37 1019.73 1020.02 1020.30 1020.50 1020.69 1020.93 1021.03 1020.97 1021.22 1021.31 1021.75 1021.85 1022.08 1022.12 1022.13 1022.10 1021.98 1021.81 1021.50 1021.28 1021.13 1020.95 1020.61 1020.06 1019.45 1019.06 1018.61 1017.93 1017.96 1018.13 1018.64 1018.78 1018.79 1018.65 1018.73
1016.29 1016.59 1016.71 1016.92 1017.31 1017.75 1018.12 1018.58 1018.94 1019.35 1019.64 1019.89 1020.08 1020.28 1020.38 1020.68 1020.70 1020.95 1021.11 1021.13 1021.37 1021.55 1021.62 1021.69 1021.46 1021.22 1020.93 1020.90 1020.73 1020.77 1020.48 1020.18 1019.51 1018.81 1018.92 1017.88 1017.99 1018.32 1018.59 1018.81 1019.18 1019.21 1019.17
1015.39 1015.90 1016.14 1016.36 1016.47 1016.73 1017.15 1017.59 1018.10 1018.58 1018.82 1018.96 1019.24 1019.49 1019.79 1020.02 1020.17 1020.49 1020.47 1020.55 1020.75 1020.75 1020.97 1020.99 1020.71 1020.52 1020.18 1020.15 1020.22 1020.29 1020.26 1020.01 1019.55 1018.74 1018.95 1018.17 1018.06 1018.41 1018.90 1019.19 1019.46 1019.39 1019.29
1014.38 1014.77 1015.23 1015.60 1015.84 1015.94 1016.23 1016.63 1017.09 1017.61 1017.79 1017.91 1018.21 1018.49 1018.81 1019.18 1019.45 1019.74 1019.99 1019.95 1019.88 1019.82 1019.82 1019.89 1019.81 1019.47 1019.27 1019.24 1019.53 1019.72 1019.84 1019.63 1019.29 1018.33 1018.42 1018.27 1017.99 1018.26 1018.82 1019.37 1019.66 1019.48 1019.27
1013.59 1013.75 1014.11 1014.67 1015.09 1015.14 1015.35 1015.72 1016.39 1016.92 1016.99 1016.91 1017.17 1017.45 1017.83 1018.23 1018.48 1018.81 1019.27 1019.17 1019.01 1018.58 1018.43 1018.75 1018.75 1018.67 1018.73 1018.86 1019.11 1019.35 1019.23 1019.31 1018.65 1018.07 1017.92 1017.99 1017.37 1018.02 1018.74 1019.21 1019.39 1019.66 1019.51
1012.59 1012.94 1013.10 1013.43 1013.67 1014.13 1014.45 1014.69 1015.38 1015.97 1016.17 1016.16 1016.35 1016.55 1016.77 1017.15 1017.53 1017.91 1018.38 1018.39 1018.29 1017.67 1017.81 1017.78 1018.10 1018.08 1018.25 1018.13 1018.57 1018.58 1018.43 1018.45 1018.25 1018.00 1017.40 1017.64 1017.26 1017.70 1018.40 1018.61 1018.91 1018.81 1018.76
Thickness
5747 5745 5743 5742 5740 5739 5741 5740 5739 5739 5741 5742 5740 5738 5736 5734 5736 5737 5737 5737 5737 5736 5735 5734 5734 5735 5734 5734 5734 5734 5734 5734 5734 5733 5733 5733 5733 5732 5732 5730 5729 5728 5727
5746 5746 5746 5744 5742 5742 5741 5742 5740 5740 5741 5743 5742 5739 5737 5737 5738 5738 5738 5738 5738 5738 5737 5736 5737 5738 5737 5737 5736 5736 5737 5737 5737 5737 5737 5736 5736 5735 5734 5733 5731 5730 5729
5745 5747 5748 5746 5744 5745 5744 5743 5742 5743 5744 5745 5744 5741 5740 5741 5741 5740 5740 5740 5739 5740 5740 5740 5740 5741 5740 5740 5740 5740 5740 5740 5740 5741 5740 5740 5740 5739 5738 5737 5736 5733 5731
5749 5751 5749 5749 5748 5747 5747 5746 5745 5745 5743 5744 5744 5743 5743 5744 5744 5744 5744 5743 5742 5742 5743 5743 5744 5743 5744 5743 5744 5744 5745 5745 5745 5745 5746 5745 5744 5742 5741 5741 5739 5736 5733
5750 5752 5751 5751 5750 5748 5749 5748 5747 5746 5744 5744 5745 5746 5748 5747 5747 5747 5748 5748 5747 5746 5746 5747 5747 5747 5748 5748 5749 5750 5750 5749 5750 5750 5750 5749 5748 5746 5746 5744 5742 5740 5737
5753 5752 5751 5751 5751 5750 5749 5749 5749 5747 5746 5746 5748 5749 5750 5750 5751 5751 5752 5752 5751 5751 5751 5751 5751 5752 5752 5753 5754 5755 5754 5755 5755 5754 5754 5753 5752 5751 5749 5748 5745 5743 5740
5756 5755 5752 5752 5752 5750 5749 5749 5749 5748 5747 5748 5747 5748 5750 5752 5754 5755 5756 5756 5756 5756 5756 5757 5757 5757 5758 5760 5760 5760 5760 5760 5759 5760 5759 5757 5756 5755 5754 5752 5749 5746 5743
5757 5755 5753 5750 5751 5751 5750 5749 5749 5748 5748 5748 5745 5743 5739 5749 5757 5760 5760 5761 5762 5761 5762 5762 5763 5763 5764 5765 5766 5766 5766 5765 5764 5763 5763 5763 5761 5759 5757 5755 5753 5750 5747
5758 5756 5754 5753 5752 5752 5751 5750 5751 5751 5747 5747 5750 5746 5738 5738 5746 5760 5764 5765 5766 5767 5768 5769 5769 5770 5771 5771 5771 5772 5771 5770 5769 5769 5768 5767 5766 5764 5762 5759 5757 5754 5751
5759 5759 5758 5757 5756 5755 5754 5753 5752 5752 5751 5747 5749 5751 5751 5749 5745 5748 5763 5767 5769 5771 5774 5775 5775 5777 5777 5777 5777 5777 5776 5775 5775 5774 5774 5773 5772 5770 5768 5766 5763 5759 5756
5762 5760 5759 5758 5758 5757 5756 5755 5755 5754 5754 5751 5751 5751 5751 5752 5753 5751 5752 5761 5772 5776 5778 5779 5781 5782 5782 5782 5782 5782 5781 5782 5781 5783 5780 5779 5778 5777 5775 5773 5770 5766 5762
5763 5762 5761 5760 5758 5758 5759 5757 5756 5755 5755 5755 5754 5754 5754 5755 5755 5755 5754 5757 5761 5774 5781 5784 5785 5786 5786 5787 5787 5788 5788 5789 5788 5790 5788 5787 5786 5785 5783 5781 5779 5775 5771
5764 5764 5764 5762 5760 5760 5760 5759 5758 5756 5755 5757 5756 5756 5757 5759 5761 5761 5759 5759 5761 5772 5779 5786 5788 5789 5789 5790 5791 5790 5790 5791 5793 5795 5795 5794 5793 5791 5790 5788 5786 5782 5778
5770 5769 5766 5765 5764 5762 5760 5759 5759 5758 5756 5757 5759 5760 5761 5762 5764 5765 5764 5762 5762 5766 5773 5779 5788 5789 5790 5792 5793 5793 5794 5795 5797 5797 5798 5800 5800 5798 5797 5795 5792 5788 5785
5774 5772 5769 5767 5766 5764 5761 5760 5760 5759 5758 5759 5760 5762 5764 5764 5765 5767 5768 5768 5765 5760 5765 5779 5781 5789 5791 5792 5793 5795 5796 5798 5799 5801 5802 5800 5801 5803 5802 5801 5799 5795 5790
5776 5774 5772 5770 5770 5767 5765 5762 5761 5760 5760 5761 5761 5761 5764 5766 5767 5767 5768 5768 5768 5766 5764 5775 5781 5785 5789 5791 5793 5795 5797 5799 5800 5801 5803 5805 5806 5807 5805 5804 5800 5796 5791
5778 5776 5774 5773 5773 5772 5769 5766 5764 5763 5761 5761 5762 5763 5764 5766 5767 5768 5768 5768 5768 5769 5766 5774 5778 5784 5787 5791 5794 5795 5797 5798 5801 5804 5806 5806 5807 5806 5805 5803 5801 5797 5794
5781 5780 5778 5776 5776 5776 5774 5770 5768 5767 5764 5762 5763 5763 5765 5767 5768 5769 5769 5768 5769 5772 5771 5769 5777 5782 5785 5790 5791 5793 5796 5799 5801 5804 5806 5807 5809 5807 5806 5804 5802 5798 5793
5782 5783 5781 5780 5779 5779 5777 5776 5774 5772 5769 5767 5766 5765 5768 5768 5768 5769 5770 5770 5772 5774 5774 5773 5776 5781 5785 5788 5790 5792 5795 5800 5800 5804 5806 5808 5809 5807 5806 5804 5800 5796 5792
5782 5784 5784 5783 5783 5782 5782 5780 5778 5776 5774 5772 5771 5770 5769 5769 5770 5771 5771 5771 5773 5773 5774 5774 5776 5778 5781 5787 5786 5786 5791 5797 5797 5803 5805 5806 5806 5804 5802 5799 5796 5792 5787
5784 5786 5786 5786 5786 5785 5784 5782 5781 5780 5778 5776 5775 5773 5772 5772 5773 5774 5774 5773 5772 5772 5774 5774 5774 5776 5779 5781 5782 5785 5786 5791 5794 5798 5800 5803 5802 5800 5795 5792 5789 5787 5782
5783 5784 5787 5788 5788 5789 5787 5785 5784 5782 5781 5780 5777 5776 5776 5774 5773 5774 5774 5774 5776 5774 5773 5772 5774 5774 5778 5778 5783 5783 5784 5784 5785 5796 5794 5799 5799 5796 5792 5788 5784 5780 5776
5783 5782 5784 5786 5790 5791 5789 5787 5784 5783 5783 5784 5782 5781 5779 5779 5777 5777 5777 5776 5777 5777 5778 5777 5776 5776 5779 5780 5783 5781 5781 5783 5785 5794 5791 5791 5797 5792 5787 5782 5780 5777 5774
5784 5784 5783 5785 5787 5791 5790 5788 5786 5785 5785 5787 5786 5785 5784 5782 5781 5780 5779 5780 5781 5782 5780 5779 5780 5783 5784 5784 5783 5783 5781 5783 5786 5792 5791 5785 5792 5789 5784 5778 5774 5773 5771
5782 5787 5787 5784 5786 5790 5789 5788 5783 5783 5785 5788 5788 5788 5788 5786 5785 5782 5780 5780 5781 5784 5784 5783 5784 5786 5785 5784 5782 5780 5779 5777 5781 5786 5788 5785 5791 5786 5781 5775 5770 5766 5763
5782 5783 5787 5789 5791 5792 5790 5789 5784 5784 5784 5787 5788 5789 5789 5789 5786 5784 5782 5781 5780 5785 5784 5785 5785 5785 5785 5784 5782 5779 5782 5778 5778 5777 5786 5782 5785 5781 5775 5775 5769 5767 5765